[[{"header":{"parameterUnit":"m.s-1","parameterCategory":1,"la1":30.2991,"la2":30.254,"lo1":-89.0895,"lo2":-89.0444,"dy":0.0017,"dx":0.0017,"nx":28,"ny":28,"refTime":"2025-04-11T09:00:00:Z","depth":0,"parameterNumber":2,"parameterNumberName":"U-component_of_WINDS"},"data":[0,0,0,0,0,0,0,0,0,0,0,0,0,0,0,0,0,0,0,0,0,0,0,0,0,0,0,0,0,0,0,0,0,0,0,0,0,0,0,0,0,0,0,0,0,0,0,0,0,0,0,0,0,0,0,0,0,0,2.8004,2.8004,0,2.7982,2.7981,2.7981,2.7922,2.7921,2.7919,2.7918,2.7894,2.7894,2.7895,0,0,0,0,0,0,0,0,0,0,0,0,0,2.7997,2.7997,2.8004,2.8004,2.8004,2.7982,2.7981,2.7981,2.7922,2.7921,2.7919,2.7918,2.7894,2.7894,2.7895,0,0,0,0,0,0,0,0,0,0,0,0,0,2.799,2.7997,2.8004,2.7972,2.7969,2.7982,2.7981,2.7981,2.7923,2.7921,2.7919,2.7917,2.7894,2.7894,2.7895,2.7937,0,0,2.7897,2.7898,0,0,0,0,0,0,0,0,2.799,2.799,2.7977,2.7974,2.797,2.7953,2.797,2.7966,2.7923,2.794,2.7918,2.7916,2.7915,2.7914,2.7914,2.7936,2.7935,2.7897,2.7898,2.7898,2.7899,0,0,0,0,0,0,0,2.7991,2.7991,2.7995,2.7977,2.7973,2.7958,2.7955,2.7969,2.7938,2.7938,2.7934,2.7932,2.7913,2.7913,2.7913,2.7935,2.7897,2.7898,2.7899,2.7899,2.7993,2.7995,0,0,0,0,0,0,2.7996,2.7991,2.7996,2.7994,2.7976,2.796,2.7956,2.796,2.7938,2.7933,2.7934,2.793,2.7913,2.7912,2.7912,2.7961,2.7898,2.7899,2.7899,2.7991,2.7994,2.7996,0,0,0,0,0,0,2.7996,2.7997,2.7997,2.7992,2.7991,2.7962,2.7967,2.7961,2.7961,2.7935,2.7929,2.794,2.7911,2.791,2.7932,2.7959,2.7899,2.79,2.7989,2.7992,2.7995,2.8059,0,0,0,0,0,0,2.7996,2.7997,2.8013,2.7993,2.7991,2.8018,2.7968,2.7962,2.7963,2.7957,2.7938,2.7934,2.791,2.7931,2.7933,2.7959,2.7901,2.7986,2.799,2.7994,2.8054,2.8064,2.8072,0,0,0,0,0,2.7996,2.8031,2.8014,2.8015,2.801,2.8019,2.8018,2.799,2.7965,2.7981,2.7964,2.7934,2.7956,2.7934,2.7935,2.7962,2.7984,2.7989,2.7993,2.805,2.8062,2.8072,0,0,0,0,0,0,2.8054,2.8028,2.8008,2.8038,2.8032,2.8009,2.8028,2.8003,2.8003,2.7998,2.7963,2.7959,2.7986,2.7976,2.7952,2.8003,2.7965,2.797,2.8008,2.8019,2.8028,2.8029,2.7901,0,0,0,0,0,2.8071,2.8081,2.8057,2.8085,2.8083,2.8057,2.8059,2.8039,2.803,2.8027,2.8012,2.8005,2.801,2.8014,2.8017,2.8053,2.8048,2.8072,2.8081,2.8088,2.8093,2.8112,2.8123,2.8011,2.8011,2.8011,0,0,2.8104,2.8091,2.8099,2.8097,2.8089,2.8101,2.8054,2.8068,2.8076,2.8029,2.8048,2.8037,2.8027,2.8056,2.8068,2.8049,2.8123,2.8094,2.81,2.8101,2.8118,2.8129,2.8138,2.8014,2.8013,2.8013,0,0,2.8172,2.8163,2.8186,2.818,2.817,2.8152,2.8158,2.814,2.8131,2.8151,2.8116,2.8125,2.8135,2.8129,2.8128,2.8196,2.8169,2.8198,2.8244,2.8263,2.8272,2.828,2.8305,2.8314,2.8203,2.8203,2.8203,0,2.8215,2.823,2.8201,2.8217,2.8218,2.8177,2.8201,2.8196,2.8187,2.8189,2.8167,2.818,2.817,2.8198,2.8215,2.8215,2.8221,2.8199,2.8273,2.8281,2.8287,2.8311,2.832,2.8207,2.8206,2.8206,2.8205,0,2.8284,2.8296,2.8316,2.831,2.8312,2.8332,2.8307,2.8313,2.8293,2.8278,2.8299,2.8286,2.8286,2.8292,2.8271,2.8317,2.8306,2.828,2.8241,2.8302,2.8324,2.8332,2.8212,2.821,2.8209,2.8208,0,0,2.8386,2.8365,2.8373,2.837,2.8357,2.8365,2.8384,2.8386,2.8392,2.8388,2.8403,2.8413,2.8389,2.8388,2.8367,2.8384,2.844,2.8356,2.8355,2.8372,2.8491,2.8511,2.8521,2.8422,2.8424,2.8425,2.8492,0,2.8449,2.848,2.8456,2.8491,2.8502,2.8465,2.8481,2.8475,2.8462,2.847,2.8455,2.8463,2.8431,2.843,2.8445,2.843,2.8463,2.8425,2.8436,2.8437,2.844,2.8532,2.8553,2.8616,2.85,2.8501,2.8502,0,2.8527,2.8528,2.8565,2.8552,2.8555,2.857,2.8571,2.8578,2.8571,2.8561,2.856,2.8535,2.8553,2.8517,2.8541,2.8515,2.8519,2.8512,2.8514,2.8514,2.8473,2.8535,2.8636,2.8645,2.8515,2.8514,2.8513,0,2.8598,2.8609,2.8633,2.8631,2.8616,2.8628,2.8622,2.8613,2.8616,2.8616,2.8618,2.862,2.8622,2.8624,2.8601,2.8576,2.8629,2.859,2.8621,2.8622,2.8633,2.8632,2.8736,2.8636,2.8635,2.8635,2.8635,0,2.8672,2.8696,2.8665,2.8679,2.8706,2.8678,2.8704,2.8694,2.8687,2.87,2.8668,2.868,2.8648,2.8658,2.864,2.8663,2.8664,2.8656,2.8651,2.8659,2.866,2.866,2.8655,2.8638,2.8637,2.8637,2.8636,0,2.8755,2.8735,2.8759,2.8743,2.8739,2.876,2.8746,2.8759,2.8745,2.8761,2.8763,2.874,2.875,2.8727,2.8733,2.8721,2.8755,2.8742,2.8757,2.8754,2.8786,2.8783,2.8893,2.8906,2.8798,2.8799,2.88,0,2.8803,2.8821,2.8808,2.8814,2.881,2.8821,2.8824,2.8798,2.8803,2.8798,2.8812,2.8819,2.8823,2.884,2.8824,2.8828,2.8816,2.8854,2.8816,2.8824,2.8817,2.8816,2.8818,2.8862,2.8863,2.8864,2.8865,0,2.8891,2.8881,2.8887,2.8891,2.8897,2.8898,2.8897,2.8904,2.8877,2.8884,2.8894,2.8897,2.8904,2.8911,2.8913,2.8906,2.8882,2.8877,2.8885,2.8893,2.8901,2.8897,2.8779,2.8875,2.8874,2.8873,2.8872,2.8872,2.8958,2.8973,2.8967,2.8975,2.8973,2.8973,2.8985,2.8973,2.8981,2.8985,2.8969,2.8983,2.8977,2.8976,2.8973,2.8983,2.8966,2.8976,2.8979,2.8982,2.8988,2.89,2.8983,2.8983,2.8983,2.8983,2.8982,0,2.9044,2.9039,2.9048,2.9048,2.9056,2.9033,2.9031,2.9039,2.9052,2.9048,2.9054,2.9066,2.9074,2.9059,2.9065,2.9076,2.9065,2.9078,2.9077,2.9076,2.9003,2.8996,2.9087,2.9087,2.9087,2.9087,2.9087,2.9087,2.909,2.9115,2.9104,2.9127,2.9121,2.9135,2.9136,2.9137,2.9134,2.9149,2.9156,2.9147,2.914,2.9145,2.9151,2.9147,2.915,2.9168,2.916,2.9091,2.9081,2.9071,2.9065,2.9169,2.9169,2.9232,2.9233,2.9233]},{"header":{"parameterUnit":"m.s-1","parameterCategory":1,"la1":30.2991,"la2":30.254,"lo1":-89.0895,"lo2":-89.0444,"dy":0.0017,"dx":0.0017,"nx":28,"ny":28,"refTime":"2025-04-11T09:00:00:Z","depth":0,"parameterNumber":3,"parameterNumberName":"V-component_of_WINDS"},"data":[0,0,0,0,0,0,0,0,0,0,0,0,0,0,0,0,0,0,0,0,0,0,0,0,0,0,0,0,0,0,0,0,0,0,0,0,0,0,0,0,0,0,0,0,0,0,0,0,0,0,0,0,0,0,0,0,0,0,-4.9762,-4.9763,0,-4.9825,-4.9826,-4.9827,-4.9787,-4.9785,-4.9783,-4.9782,-4.9842,-4.9845,-4.9849,0,0,0,0,0,0,0,0,0,0,0,0,0,-4.9604,-4.9608,-4.9762,-4.9763,-4.9764,-4.9825,-4.9826,-4.9827,-4.9787,-4.9785,-4.9783,-4.9781,-4.9841,-4.9845,-4.9849,0,0,0,0,0,0,0,0,0,0,0,0,0,-4.9671,-4.9609,-4.9762,-4.9752,-4.9751,-4.9825,-4.9826,-4.9827,-4.9788,-4.9785,-4.9782,-4.978,-4.984,-4.9845,-4.985,-4.9936,0,0,-4.9865,-4.9867,0,0,0,0,0,0,0,0,-4.9667,-4.9677,-4.9752,-4.9752,-4.9752,-4.9796,-4.9793,-4.9863,-4.9789,-4.9774,-4.9782,-4.9778,-4.9829,-4.9834,-4.9852,-4.9939,-4.9941,-4.9865,-4.9868,-4.9871,-4.9872,0,0,0,0,0,0,0,-4.9662,-4.9674,-4.9787,-4.9753,-4.9753,-4.9743,-4.9749,-4.9806,-4.9816,-4.9775,-4.9772,-4.978,-4.9828,-4.9847,-4.9853,-4.9942,-4.9865,-4.987,-4.9873,-4.9875,-5.0104,-5.0107,0,0,0,0,0,0,-4.9659,-4.967,-4.9785,-4.9789,-4.9702,-4.9748,-4.9755,-4.9784,-4.9815,-4.9817,-4.9783,-4.9778,-4.984,-4.9848,-4.9855,-4.9959,-4.987,-4.9875,-4.9878,-5.0101,-5.0105,-5.0108,0,0,0,0,0,0,-4.9656,-4.967,-4.9782,-4.9729,-4.9742,-4.9754,-4.9787,-4.9787,-4.9806,-4.9821,-4.9822,-4.9801,-4.9838,-4.9848,-4.9917,-4.9961,-4.9877,-4.9882,-5.0097,-5.0102,-5.0106,-5.0167,0,0,0,0,0,0,-4.9652,-4.9669,-4.9702,-4.973,-4.9745,-4.9844,-4.979,-4.979,-4.9816,-4.9811,-4.9839,-4.984,-4.9837,-4.991,-4.9922,-4.9966,-4.9886,-5.0093,-5.0099,-5.0105,-5.0161,-5.0173,-5.0184,0,0,0,0,0,-4.9646,-4.9716,-4.9704,-4.9718,-4.9788,-4.9846,-4.9855,-4.9851,-4.9819,-4.9853,-4.9862,-4.984,-4.9954,-4.9917,-4.993,-4.9977,-5.0091,-5.0098,-5.0104,-5.0156,-5.0171,-5.0183,0,0,0,0,0,0,-4.9691,-4.9719,-4.9707,-4.9788,-4.9815,-4.984,-4.9882,-4.9866,-4.9902,-4.9896,-4.9888,-4.9894,-4.9966,-4.9978,-4.9936,-5.0063,-5.0017,-5.0027,-5.0052,-5.0066,-5.0077,-5.0072,-4.989,0,0,0,0,0,-4.9711,-4.9758,-4.9779,-4.9848,-4.9863,-4.987,-4.9896,-4.989,-4.9918,-4.9929,-4.9943,-4.997,-5.0012,-5.004,-5.0079,-5.0163,-5.0169,-5.0202,-5.0213,-5.0222,-5.0231,-5.0277,-5.0292,-5.0131,-5.0131,-5.0131,0,0,-4.9752,-4.9773,-4.9802,-4.9858,-4.9879,-4.9926,-4.988,-4.9932,-4.9967,-4.9936,-5.0002,-5.0014,-5.0043,-5.012,-5.0155,-5.0132,-5.0276,-5.0231,-5.0238,-5.0242,-5.0285,-5.03,-5.0314,-5.0136,-5.0135,-5.0134,0,0,-4.985,-4.9871,-4.9931,-4.9954,-4.9986,-4.9991,-5.0006,-5.0033,-5.004,-5.0107,-5.0085,-5.0126,-5.0198,-5.0221,-5.0241,-5.035,-5.0331,-5.0363,-5.0421,-5.0466,-5.0479,-5.049,-5.0529,-5.0543,-5.0372,-5.0372,-5.0372,0,-4.9896,-4.9968,-4.9964,-5.0019,-5.0044,-5.002,-5.0081,-5.0102,-5.0146,-5.0163,-5.0138,-5.023,-5.0247,-5.033,-5.0357,-5.0374,-5.039,-5.036,-5.0478,-5.0489,-5.0499,-5.0536,-5.0551,-5.0376,-5.0375,-5.0375,-5.0374,0,-5.0023,-5.0073,-5.0118,-5.0163,-5.0193,-5.0251,-5.0255,-5.0286,-5.0278,-5.0285,-5.0354,-5.0375,-5.0418,-5.0438,-5.043,-5.0519,-5.0504,-5.0479,-5.0433,-5.0518,-5.0553,-5.0567,-5.0381,-5.038,-5.0379,-5.0378,0,0,-5.015,-5.0194,-5.021,-5.0231,-5.0266,-5.0304,-5.0361,-5.0405,-5.0432,-5.0463,-5.051,-5.0573,-5.055,-5.0573,-5.0568,-5.0608,-5.0693,-5.0577,-5.0578,-5.0598,-5.0793,-5.0813,-5.0829,-5.0681,-5.0683,-5.0686,-5.0791,0,-5.0251,-5.0351,-5.035,-5.0442,-5.0489,-5.0468,-5.0517,-5.0544,-5.0552,-5.0592,-5.0601,-5.0646,-5.0612,-5.0626,-5.0665,-5.0675,-5.0732,-5.0667,-5.0724,-5.0726,-5.0717,-5.0847,-5.0868,-5.0966,-5.0805,-5.0807,-5.0809,0,-5.0381,-5.0419,-5.0517,-5.0547,-5.0566,-5.0611,-5.0652,-5.0691,-5.0721,-5.0724,-5.0752,-5.074,-5.0797,-5.0751,-5.0829,-5.0784,-5.0807,-5.0816,-5.082,-5.0825,-5.0772,-5.0856,-5.0997,-5.1012,-5.083,-5.0828,-5.0827,0,-5.0465,-5.054,-5.0608,-5.0626,-5.0663,-5.0695,-5.0711,-5.0738,-5.0766,-5.0801,-5.0819,-5.086,-5.0883,-5.0915,-5.0915,-5.0881,-5.0994,-5.0947,-5.0998,-5.0998,-5.1022,-5.1021,-5.117,-5.1038,-5.1037,-5.1037,-5.1037,0,-5.0577,-5.0638,-5.0647,-5.0689,-5.0756,-5.0754,-5.082,-5.0834,-5.0858,-5.0902,-5.0886,-5.0927,-5.0925,-5.0966,-5.0967,-5.1032,-5.1042,-5.1046,-5.1045,-5.1047,-5.1047,-5.1062,-5.1055,-5.1041,-5.104,-5.1039,-5.1039,0,-5.0681,-5.069,-5.0763,-5.0793,-5.0801,-5.085,-5.0874,-5.0914,-5.0922,-5.0978,-5.099,-5.1002,-5.1051,-5.1054,-5.1109,-5.111,-5.1188,-5.118,-5.1179,-5.1177,-5.1228,-5.1224,-5.1392,-5.1414,-5.1268,-5.1269,-5.127,0,-5.0752,-5.0799,-5.0834,-5.0863,-5.0882,-5.0929,-5.0958,-5.0958,-5.0988,-5.1026,-5.1061,-5.1109,-5.1146,-5.1224,-5.1237,-5.1279,-5.1272,-5.1328,-5.1278,-5.1279,-5.1273,-5.127,-5.1275,-5.1337,-5.1339,-5.134,-5.1341,0,-5.0878,-5.088,-5.0923,-5.0968,-5.1003,-5.1037,-5.107,-5.1094,-5.1098,-5.1133,-5.1183,-5.1212,-5.127,-5.1317,-5.1359,-5.1374,-5.1359,-5.1357,-5.1371,-5.1374,-5.1372,-5.1374,-5.1206,-5.1353,-5.1352,-5.1351,-5.1351,-5.135,-5.0968,-5.1009,-5.1041,-5.1089,-5.1114,-5.1145,-5.1184,-5.1198,-5.1241,-5.1289,-5.1286,-5.1342,-5.1371,-5.1426,-5.1445,-5.1488,-5.1468,-5.1489,-5.1494,-5.1499,-5.1504,-5.1365,-5.1495,-5.1495,-5.1494,-5.1494,-5.1494,0,-5.1093,-5.1113,-5.1157,-5.1204,-5.1243,-5.1227,-5.1262,-5.1294,-5.1344,-5.1374,-5.1412,-5.147,-5.1516,-5.1533,-5.1578,-5.1609,-5.1603,-5.162,-5.1618,-5.1622,-5.1519,-5.1502,-5.1625,-5.1625,-5.1625,-5.1625,-5.1625,-5.1625,-5.1162,-5.1231,-5.1237,-5.1318,-5.1337,-5.1393,-5.1415,-5.1444,-5.1467,-5.1534,-5.1573,-5.1584,-5.1609,-5.1655,-5.1697,-5.17,-5.1718,-5.1738,-5.1739,-5.1642,-5.1629,-5.1617,-5.1601,-5.1742,-5.1742,-5.1839,-5.184,-5.184]}]]